Skip Page Navigation
NASA JPL Caltech
NASA Logo - Jet Propulsion Laboratory + View the NASA Portal
+ Near-Earth Object (NEO) Program
Search JPL
JPL Home Earth Solar System Stars & Galaxies Technology
JPL Solar System Dynamics
BODIES ORBITS EPHEMERIDES TOOLS PHYSICAL DATA DISCOVERY FAQ SITE MAP
JPL Small-Body Database Browser
Search: [ help ]  
8329 Speckman (1982 FP3)
Classification: Main-belt Asteroid          SPK-ID: 2008329
Ephemeris | Orbit Diagram | Orbital Elements | Physical Parameters | Discovery Circumstances ]

[ show orbit diagram ]
Orbital Elements at Epoch 2456400.5 (2013-Apr-18.0) TDB
Reference: MPO247442 (heliocentric ecliptic J2000)
 Element Value Uncertainty (1-sigma)   Units 
e 0.1298696 n/a  
a 3.1729630 n/a AU
q 2.7608916 n/a AU
i 2.30759 n/a deg
node 67.50789 n/a deg
peri 140.52321 n/a deg
M 168.86776 n/a deg
tp 2455432.1325520
(2010-Aug-23.63255200)
n/a JED
period 2064.4099340
5.65
n/a
n/a
d
yr
n 0.17438397 n/a deg/d
Q 3.5850344 n/a AU
  Orbit Determination Parameters
   # obs. used (total)      1071  
   first obs. used      1977-??-??  
   last obs. used      2012-12-04  
   # oppositions      20  
   planetary ephem.      DE403  
   condition code      0  
   fit RMS      0.54  
   data source      MPC:mpn  
   producer      MPCLINUX  

Additional Information
 T_jup = 3.187 

Ephemeris | Orbit Diagram | Orbital Elements | Physical Parameters | Discovery Circumstances ]

Physical Parameter Table
Parameter Symbol Value Units Sigma Reference Notes
absolute magnitude H 12.3 mag n/a PDS3 (MPC 31350)  

8329 Speckman           Discovered 1982 Mar. 22 by H. Debehogne at the European Southern Observatory.
Mark Speckman (b. 1955), football coach at Willamette University, was born without hands. He has turned his physical handicap into positive affirmation, touching many with his uplifting story about never giving up, helping others and always doing the very best you can regardless of the circumstances.
NOTE: some special characters may not display properly (any characters within {} are an attempt to place the proper accent above a character)
Reference: 20060809/MPCPages.arcLast Updated: 2007-08-08

Alternate Designations
 1982 FP3 = 1977 LO1 = 1982 HW2 
Ephemeris | Orbit Diagram | Orbital Elements | Physical Parameters | Discovery Circumstances ]
ABOUT SSD CREDITS/AWARDS PRIVACY/COPYRIGHT GLOSSARY LINKS
FirstGov 2013-Jun-19 13:54 UT
(server date/time)  
NASA Home Page
Site Manager:   Donald K. Yeomans
Webmaster  Alan B. Chamberlin